EW2849 Weather Reports


Display with metric or nautical units.
time (UTC)temp
F
wind
direction
speed
MPH
gust
MPH
rain 1hr
in
rain 24hr
in
rain mn
in
humidity
%
barometer
mb
20200714195755 52 341 1.0 8.0 0.00 0.04 0.04 94 1015.6
20200714194555 52 331 3.0 14.0 0.00 0.04 0.04 94 1015.6
20200714193353 52 346 2.0 13.0 0.00 0.04 0.04 94 1015.6
20200714192152 52 333 2.0 11.0 0.00 0.04 0.04 94 1015.6
20200714190950 52 322 3.0 16.0 0.00 0.04 0.04 94 1015.6
20200714185749 52 321 3.0 16.0 0.00 0.04 0.04 94 1013.1
20200714184548 52 352 2.0 11.0 0.00 0.04 0.04 94 1012.2
20200714183347 52 347 2.0 9.0 0.00 0.04 0.04 94 1012.2
20200714182146 52 309 5.0 17.0 0.00 0.04 0.04 94 1015.6
20200714180944 52 337 4.0 16.0 0.00 0.04 0.04 94 1013.1
20200714175743 52 342 2.0 16.0 0.00 0.04 0.04 94 1013.1
20200714174542 52 334 5.0 18.0 0.00 0.04 0.04 94 1012.2
20200714173341 52 324 1.0 10.0 0.00 0.04 0.04 94 1012.2
20200714172140 52 0 1.0 8.0 0.00 0.04 0.04 94 1012.2
20200714170938 52 0 1.0 11.0 0.00 0.04 0.04 94 1012.2
20200714165737 52 334 4.0 14.0 0.00 0.04 0.04 94 1012.2
20200714164537 52 5 1.0 13.0 0.00 0.04 0.04 94 1012.2
20200714163335 52 316 6.0 24.0 0.00 0.04 0.04 94 1012.2
20200714162133 52 349 6.0 24.0 0.00 0.04 0.04 94 1012.2
20200714160932 52 347 4.0 21.0 0.00 0.04 0.04 94 1012.2
20200714155731 52 0 2.0 16.0 0.00 0.04 0.04 94 1012.2
20200714154529 52 336 3.0 19.0 0.00 0.04 0.04 94 1012.2
20200714153330 52 3 2.0 11.0 0.00 0.04 0.04 94 1012.2
20200714152127 52 0 6.0 24.0 0.00 0.04 0.04 94 1012.2
20200714150926 52 334 5.0 27.0 0.00 0.04 0.04 94 1012.2
20200714145724 52 323 5.0 24.0 0.00 0.04 0.04 94 1012.2
20200714144523 52 329 3.0 16.0 0.00 0.04 0.04 94 1012.2
20200714143321 52 338 3.0 14.0 0.00 0.04 0.04 94 1012.2
20200714142120 52 310 3.0 12.0 0.00 0.04 0.04 94 1012.2
20200714140918 52 225 0.0 4.0 0.00 0.04 0.04 94 1012.2
20200714135717 52 270 1.0 4.0 0.00 0.04 0.04 94 1012.2
20200714134516 52 248 0.0 2.0 0.00 0.04 0.04 94 1015.6
20200714133417 52 234 1.0 5.0 0.00 0.04 0.04 94 1015.6
20200714132213 52 256 1.0 9.0 0.00 0.04 0.04 94 1015.6
20200714131014 52 203 2.0 10.0 0.00 0.04 0.04 94 1015.6
20200714125823 52 191 2.0 10.0 0.00 0.04 0.04 94 1015.6
20200714124611 52 188 1.0 14.0 0.00 0.04 0.04 94 1015.6
20200714123408 52 203 3.0 16.0 0.00 0.04 0.04 94 1015.6
20200714122207 52 137 2.0 8.0 0.00 0.04 0.04 94 1015.6
20200714121006 52 158 2.0 11.0 0.00 0.04 0.04 94 1015.6
20200714120343 52 213 2.0 11.0 0.00 0.04 0.04 94 1015.6
20200714115142 52 197 4.0 16.0 0.00 0.04 0.04 94 1015.6
20200714113939 52 203 2.0 14.0 0.04 0.04 0.04 94 1015.6
20200714112738 52 248 3.0 14.0 0.04 0.04 0.04 94 1015.6
20200714111536 52 215 2.0 10.0 0.04 0.04 0.04 94 1015.6
20200714110335 52 207 3.0 12.0 0.04 0.04 0.04 94 1015.6
20200714105134 52 218 3.0 14.0 0.04 0.04 0.04 94 1015.6
20200714103932 52 211 3.0 12.0 0.00 0.00 0.00 94 1015.6
20200714102731 52 223 1.0 4.0 0.00 0.00 0.00 94 1015.6
20200714101529 52 0.0 0.0 0.00 0.00 0.00 94 1015.6
20200714100328 52 225 0.0 3.0 0.00 0.00 0.00 94 1015.6
20200714095127 52 248 0.0 3.0 0.00 0.00 0.00 94 1015.6
20200714093925 52 224 1.0 8.0 0.00 0.00 0.00 94 1015.6
20200714092724 52 211 2.0 11.0 0.00 0.00 0.00 94 1015.6
20200714091524 52 234 1.0 9.0 0.00 0.00 0.00 94 1015.6
20200714090321 52 230 2.0 10.0 0.00 0.00 0.00 94 1015.6
20200714085120 52 241 3.0 12.0 0.00 0.00 0.00 94 1015.6
20200714083919 52 241 2.0 12.0 0.00 0.00 0.00 94 1015.6
20200714082718 52 228 2.0 12.0 0.00 0.00 0.00 94 1015.6
20200714081517 52 203 1.0 6.0 0.00 0.00 0.00 94 1015.6
20200714080316 52 219 2.0 8.0 0.00 0.00 0.00 94 1015.6
20200714075214 52 203 0.0 3.0 0.00 0.00 0.00 94 1015.6
20200714074013 52 244 1.0 4.0 0.00 0.00 0.00 94 1015.6
20200714072811 52 260 1.0 7.0 0.00 0.00 0.00 94 1015.6
20200714071613 52 270 0.0 5.0 0.00 0.00 0.00 94 1015.6
20200714070411 52 225 1.0 6.0 0.00 0.00 0.00 94 1015.6
20200714065209 52 269 1.0 8.0 0.00 0.00 0.00 94 1015.6
20200714064008 52 265 2.0 10.0 0.00 0.00 0.00 94 1015.6
20200714062805 52 228 2.0 11.0 0.00 0.00 0.00 94 1015.6
20200714061608 52 275 3.0 18.0 0.00 0.00 0.00 94 1015.6
20200714060403 52 263 2.0 11.0 0.00 0.00 0.00 94 1015.6
20200714055201 52 248 2.0 9.0 0.00 0.00 0.00 94 1015.6
20200714054001 52 259 2.0 11.0 0.00 0.00 0.00 94 1015.6
20200714052759 52 252 1.0 4.0 0.00 0.00 0.00 94 1015.6
20200714051558 52 270 2.0 9.0 0.00 0.00 0.00 94 1015.6
20200714050358 52 239 3.0 15.0 0.00 0.00 0.00 94 1015.6
20200714045155 52 245 1.0 4.0 0.00 0.00 0.00 94 1015.6
20200714043953 52 304 1.0 7.0 0.00 0.00 0.00 94 1015.6
20200714042752 52 253 2.0 9.0 0.00 0.00 0.00 94 1015.6
20200714041551 52 228 1.0 7.0 0.00 0.00 0.00 94 1015.6
20200714040349 52 228 2.0 9.0 0.00 0.00 0.00 94 1015.6
20200714035148 52 246 0.0 3.0 0.00 0.00 0.00 94 1015.6
20200714033947 52 225 1.0 8.0 0.00 0.00 0.00 94 1015.6
20200714032746 52 248 1.0 6.0 0.00 0.00 0.00 94 1015.6
20200714031544 52 231 1.0 9.0 0.00 0.00 0.00 94 1015.6
20200714030343 52 0.0 0.0 0.00 0.00 0.00 94 1015.6
20200714025141 52 203 0.0 3.0 0.00 0.00 0.00 94 1015.6
20200714023940 52 206 0.0 4.0 0.00 0.00 0.00 94 1015.6
20200714022740 52 225 0.0 1.0 0.00 0.00 0.00 94 1015.6
20200714021537 52 236 1.0 11.0 0.00 0.00 0.00 94 1015.6
20200714020336 52 248 1.0 6.0 0.00 0.00 0.00 94 1015.6
20200714015135 52 225 1.0 12.0 0.00 0.00 0.00 94 1015.6
20200714013935 52 253 1.0 5.0 0.00 0.00 0.00 94 1015.6
20200714012732 52 259 0.0 4.0 0.00 0.00 0.00 94 1015.6
20200714011531 52 251 1.0 7.0 0.00 0.00 0.00 94 1015.6
20200714010330 52 270 2.0 11.0 0.00 0.00 0.00 94 1019.0
20200714005129 52 270 1.0 4.0 0.00 0.00 0.00 94 1019.0
20200714003928 52 267 1.0 11.0 0.00 0.00 0.00 94 1019.0
20200714002726 52 256 0.0 1.0 0.00 0.00 0.00 94 1019.0
20200714001525 52 270 0.0 3.0 0.00 0.00 0.00 94 1019.0
20200714000324 52 0.0 0.0 0.00 0.00 0.00 94 1019.0
20200713235239 52 0.0 0.0 0.00 0.00 0.00 94 1019.0
20200713233923 52 0.0 0.0 0.00 0.00 0.00 94 1019.0
20200713232722 52 0.0 0.0 0.00 0.00 0.00 94 1019.0
20200713231519 52 0.0 0.0 0.00 0.00 0.00 94 1019.0
20200713230318 52 0.0 0.0 0.00 0.00 0.00 94 1019.0
20200713225116 52 315 1.0 5.0 0.00 0.00 0.00 94 1019.0
20200713223915 52 311 2.0 7.0 0.00 0.00 0.00 94 1019.0
20200713222814 52 315 0.0 1.0 0.00 0.00 0.00 94 1019.0
20200713221612 52 0 0.0 3.0 0.00 0.00 0.00 94 1019.0
20200713215725 52 0.0 0.0 0.00 0.00 0.00 94 1019.0
20200713214011 52 0.0 0.0 0.00 0.00 0.00 94 1019.0
20200713212810 52 0.0 0.0 0.00 0.00 0.00 94 1019.0
20200713211606 52 0.0 0.0 0.00 0.00 0.00 94 1019.0
20200713210405 52 0.0 0.0 0.00 0.00 0.00 94 1019.0
20200713205204 52 0.0 0.0 0.00 0.00 0.00 94 1019.0
20200713204004 52 338 0.0 3.0 0.00 0.00 0.00 94 1019.0
20200713202803 52 0.0 0.0 0.00 0.00 0.00 94 1019.0
20200713201601 52 0.0 0.0 0.00 0.00 0.00 94 1019.0
20200713200400 52 303 0.0 3.0 0.00 0.00 0.00 94 1019.0